Location: Doverdale
(52.2833°N, 2.2000°W)
Time: 03:44:38
(UTC+00:00)

Cosmos 1709 Rocket - Pass Details

Date: 29 October 2020
Orbit: 949 x 1001 km, 82.9° (Epoch: 24 November)

Event Time Altitude Azimuth Distance (km) Brightness Sun altitude
Rises 18:34:39 0° 350° (N) 3,729 7.2 -17.3°
Reaches altitude 10° 18:37:14 10° 354° (N) 2,779 6.5 -17.7°
Maximum altitude 18:43:35 63° 76° (ENE) 1,114 4.0 -18.7°
Drops below altitude 10° 18:49:53 10° 157° (SSE) 2,766 6.1 -19.6°
Sets 18:52:26 0° 160° (SSE) 3,709 6.8 -20.0°
